Vertical_Velocity
-0 1 -2 -1 -2 9 28 35 -6 -4 2 -5 2 -2 -1 0 -1 1 -0 -0 0 0 1 -0 1 -2 -1 -1 -1 0 0 -2 -0 -0 0 2 3 2 0 1 -1 -0 0 -1 -0 -0 0 -1 2
1 0 -2 -5 4 -2 62 2 -7 -1 -1 -3 2 -0 -1 -1 -0 1 -1 0 1 0 -1 1 0 -0 -0 -0 -1 -1 1 1 1 -1 0 -1 1 -0 -1 -1 -1 1 -1 -1 -1 -2 1 1 1
1 -1 -1 -6 1 5 -5 -4 2 1 -2 1 4 3 -0 3 1 1 -1 1 2 1 -0 1 -0 0 0 1 -0 -1 1 0 0 -1 -1 -0 -1 -0 0 1 1 -1 2 1 -1 -2 -3 -2 -1
1 -0 -0 2 -4 5 -3 -5 -2 7 -2 7 1 -1 1 2 -1 0 -2 1 1 1 0 1 0 1 -0 0 1 -1 -1 -0 1 -1 -3 -1 -1 1 0 -0 0 1 2 1 0 -1 -0 -1 -0
1 -1 -1 -0 -6 -5 0 5 1 1 4 7 2 1 -0 3 2 -1 -0 1 0 1 1 2 -0 1 0 0 -0 0 1 1 -1 -2 0 1 4 -2 -1 -1 -0 -1 -0 1 1 1 0 1 2
1 -2 -0 2 2 -9 -6 -0 4 3 -1 -1 1 1 2 0 2 -1 1 1 1 -1 0 2 -0 -2 1 2 -1 1 -0 0 -1 -1 -0 1 1 1 1 -2 -0 -0 0 0 0 1 0 -0 -1
2 -1 3 -0 -7 8 9 6 4 1 4 -2 0 3 1 1 0 1 -1 1 -0 -1 0 1 1 -1 -0 1 1 -0 0 -1 0 0 -2 -1 1 -1 -1 -2 -1 -0 -1 -0 -1 1 2 1 -1
-0 4 11 16 8 -2 1 3 8 3 5 -1 -1 3 0 1 -2 -0 0 1 1 -0 -0 -0 1 -1 -1 1 3 0 1 -3 -2 -2 -2 -1 -2 -0 -1 2 -2 0 -1 -1 0 -3 -1 3 -2
2 3 3 16 5 -3 -0 13 10 6 5 1 -1 6 5 2 -3 -1 -2 0 3 2 0 -1 -0 0 -1 2 1 1 1 -1 0 -1 1 -1 -1 -0 -3 -1 1 1 -1 0 3 -0 -3 -3 -1
1 4 -1 1 -7 6 2 8 6 1 5 -3 5 -0 5 3 -1 -2 -2 1 3 1 0 -0 -2 1 -1 2 2 -2 2 1 -1 -0 0 3 -1 2 -1 1 2 -0 1 0 0 0 -2 -1 -2
2 4 5 1 -0 -3 -0 40 7 4 0 1 5 2 3 5 5 -0 2 1 1 2 -0 -0 -1 -0 0 2 2 1 -2 -0 2 -4 -2 1 -1 5 2 -2 -0 -1 -0 -0 -1 -1 -1 0 -2
-0 4 2 3 0 -3 13 12 -7 2 -5 5 3 5 4 1 4 3 -3 2 1 2 -1 -0 1 -1 -1 1 2 3 -2 -1 -0 -2 -1 0 -2 2 1 0 1 -2 -3 -0 -3 -1 -0 -1 0
1 -1 0 -4 -4 -9 3 -6 -11 -4 -2 11 5 1 2 3 4 1 -1 -0 -1 3 -1 0 0 1 -1 1 2 3 -2 2 0 1 -3 1 -0 -1 -1 1 -0 -3 -0 2 -3 -3 1 -3 1
-3 -2 2 -8 -1 -0 2 -1 -4 1 -3 11 5 -3 1 4 3 2 1 4 -2 0 0 1 1 1 0 0 2 -1 -1 0 2 3 2 -3 -1 0 1 -1 -2 1 -1 3 2 -1 -4 -0 0
-5 1 5 -1 -0 2 2 2 22 -4 10 6 4 -3 -2 -1 -0 0 -3 4 -3 -1 -1 1 2 -1 4 -1 2 -0 -2 2 2 -1 -2 2 -0 -1 -1 -2 -0 0 0 -2 1 -2 1 -1 2
-1 3 4 -4 0 2 -2 0 -6 2 25 1 2 3 -3 1 -2 0 3 6 -0 3 3 2 -0 -1 3 -1 1 1 -2 -2 4 1 -1 -1 -0 -2 0 1 -1 -2 -1 -1 1 1 0 1 -0
4 4 6 3 -4 4 3 4 3 -2 16 -13 6 1 -2 -3 -4 2 -0 3 0 2 2 2 2 3 2 -0 0 5 -0 3 -1 -3 -0 -0 -1 1 2 2 -2 -2 0 3 1 -0 3 1 1
3 1 -1 -3 4 -1 -2 4 2 5 -3 -1 -1 -2 4 -4 -2 1 1 2 1 0 0 1 2 1 2 3 -1 1 -0 3 -3 0 -1 -1 -2 -3 -2 1 1 -3 -1 0 -0 1 -0 -1 -2
1 5 4 1 0 -4 -1 -4 -1 -3 2 -2 -2 -1 -2 -1 -2 -0 -1 1 0 1 0 1 1 2 -0 4 -1 0 0 -0 2 -1 -1 1 -1 -0 -2 0 -1 0 3 -0 -0 -0 -2 -2 -0
0 -0 9 9 -2 1 -4 -7 -4 -3 -1 -5 2 -3 -0 1 -4 1 -0 3 1 0 -2 1 3 4 0 2 -0 3 1 2 1 4 1 3 0 -0 -0 0 -1 -2 0 -1 -2 -2 -2 -2 1
1 3 1 9 -3 0 -0 -6 -7 -1 -4 -5 2 -4 -3 -2 2 -3 1 5 3 2 -1 -1 -0 3 2 -1 0 3 1 1 0 1 3 0 -0 0 -1 -0 -1 -1 1 2 0 -1 1 -1 -0
1 3 1 4 -2 -1 -1 -0 2 8 -6 -3 0 -11 1 2 10 -0 -6 -2 8 3 0 -1 -1 2 2 3 0 0 0 1 2 2 2 0 -0 -2 -1 -0 -0 -0 1 -0 -0 -1 -2 -1 -0
10 -3 6 3 -1 -4 -0 -5 1 -2 0 -6 1 3 -10 -6 -0 10 -1 -5 -1 1 2 -1 -1 2 3 1 1 2 1 4 1 2 -0 1 -1 -0 1 -2 -3 0 -0 -1 2 2 0 -0 -1
1 4 -3 -0 -2 -1 -0 -5 -0 -6 2 -2 -1 3 10 -2 -1 5 -4 2 -3 1 -3 -0 -1 -1 3 1 1 0 1 1 2 2 4 3 2 0 2 -1 1 0 -1 1 1 1 0 -2 -1
-1 3 1 -4 -6 3 6 3 -4 4 2 1 -1 -4 1 -1 4 -3 2 12 0 2 0 -1 -1 0 0 4 2 1 1 1 0 2 1 1 2 2 1 -1 -1 -0 2 1 -1 -1 -1 1 1
-3 -5 -4 -3 -4 10 8 -6 -1 3 2 7 4 -9 1 8 6 -6 4 5 0 -8 4 -0 0 -1 -1 -1 2 1 3 1 -0 1 1 2 5 1 1 -0 0 1 0 0 1 1 -1 0 0
9 2 6 3 5 8 -7 2 18 6 -9 -3 10 -2 -4 -4 4 -2 -4 6 4 2 -17 6 1 1 0 -2 -3 2 0 2 2 2 3 2 3 1 4 3 2 -0 -0 -2 -1 -0 -1 -1 -0
2 7 -4 -10 -2 -2 -5 5 18 3 2 -1 -4 -3 2 -1 4 3 10 -1 1 7 5 -20 -8 -1 1 -1 -0 0 2 -0 1 0 1 2 0 -0 5 2 1 -1 -1 1 1 1 1 -0 -0
3 0 -10 -3 -0 -4 -3 19 -6 9 -2 -4 -1 -6 -9 -1 3 6 3 4 1 -7 5 4 -5 -7 -2 1 -2 -1 4 2 2 2 0 2 -0 0 1 5 3 0 1 1 0 1 1 1 -0
-6 4 -4 -2 2 -8 -5 33 -7 0 -3 -4 -1 -7 -9 -10 -5 4 -1 -5 11 6 1 0 2 -1 -3 -4 -1 -0 -0 -0 1 4 3 3 4 -2 -2 1 3 1 1 1 -1 1 -1 1 0
Height
5895 5895 5896 5897 5900 5895 5877 5890 5898 5898 5902 5903 5904 5905 5904 5905 5905 5907 5904 5903 5903 5902 5902 5902 5902 5902 5903 5904 5904 5904 5903 5904 5905 5905 5905 5905 5904 5904 5904 5904 5902 5901 5902 5903 5905 5905 5904 5905 5905
5896 5896 5897 5896 5897 5895 5880 5892 5896 5901 5902 5904 5904 5905 5904 5906 5907 5907 5906 5905 5904 5904 5904 5904 5904 5905 5906 5906 5906 5905 5906 5907 5906 5906 5905 5906 5905 5905 5904 5904 5904 5904 5904 5905 5905 5904 5905 5906 5905
5897 5898 5897 5897 5897 5894 5896 5895 5899 5902 5904 5905 5904 5904 5905 5906 5907 5908 5908 5907 5906 5905 5905 5906 5907 5907 5908 5908 5908 5908 5909 5909 5908 5908 5908 5907 5906 5906 5905 5905 5905 5906 5906 5906 5906 5906 5905 5904 5904
5898 5899 5899 5900 5898 5897 5896 5897 5899 5904 5903 5902 5903 5904 5906 5908 5908 5909 5909 5909 5908 5907 5908 5908 5909 5910 5910 5910 5911 5911 5911 5911 5912 5911 5911 5909 5908 5906 5906 5906 5907 5907 5908 5908 5908 5907 5906 5905 5905
5898 5899 5899 5898 5897 5899 5898 5899 5902 5904 5905 5904 5904 5905 5907 5909 5909 5909 5910 5910 5909 5909 5910 5910 5911 5912 5912 5912 5914 5913 5913 5915 5915 5914 5913 5911 5909 5910 5909 5909 5909 5910 5910 5911 5910 5910 5910 5909 5909
5898 5900 5899 5898 5894 5899 5899 5899 5901 5903 5903 5905 5906 5906 5907 5909 5910 5910 5911 5910 5910 5910 5912 5913 5913 5914 5913 5915 5915 5915 5916 5917 5917 5917 5916 5914 5914 5913 5913 5912 5912 5912 5912 5913 5913 5913 5913 5912 5912
5898 5899 5899 5898 5897 5898 5900 5900 5903 5903 5904 5905 5905 5906 5909 5911 5910 5911 5911 5910 5911 5911 5913 5914 5915 5915 5916 5916 5917 5918 5919 5919 5919 5919 5919 5918 5918 5917 5917 5916 5915 5915 5915 5915 5915 5916 5917 5916 5915
5896 5899 5898 5889 5896 5895 5899 5900 5902 5902 5905 5906 5905 5907 5910 5911 5910 5912 5913 5912 5912 5913 5914 5915 5916 5917 5918 5918 5920 5920 5921 5922 5923 5923 5923 5922 5920 5920 5920 5920 5919 5918 5918 5917 5918 5918 5919 5919 5918
5895 5897 5898 5894 5895 5896 5897 5896 5895 5901 5905 5907 5906 5909 5911 5912 5910 5912 5913 5913 5914 5915 5916 5916 5917 5919 5920 5920 5922 5923 5923 5924 5925 5925 5925 5925 5925 5925 5924 5924 5923 5923 5922 5920 5921 5920 5920 5920 5921
5894 5896 5895 5897 5897 5897 5898 5897 5897 5902 5905 5908 5908 5909 5911 5913 5911 5912 5914 5915 5915 5915 5917 5917 5918 5920 5921 5923 5925 5925 5926 5926 5927 5928 5928 5928 5928 5929 5927 5927 5927 5926 5925 5924 5923 5924 5923 5922 5923
5892 5895 5896 5895 5895 5898 5898 5895 5894 5898 5902 5906 5908 5909 5911 5913 5914 5913 5916 5916 5916 5916 5917 5918 5920 5921 5923 5925 5926 5927 5929 5929 5930 5930 5931 5930 5930 5931 5930 5929 5928 5929 5928 5927 5926 5927 5927 5926 5926
5890 5893 5893 5893 5893 5899 5898 5893 5884 5895 5900 5903 5907 5908 5910 5913 5914 5914 5914 5916 5916 5918 5918 5918 5921 5922 5924 5926 5928 5929 5930 5931 5932 5932 5932 5933 5932 5932 5932 5931 5930 5929 5930 5929 5929 5930 5929 5929 5930
5887 5890 5890 5889 5890 5895 5896 5893 5894 5897 5897 5901 5904 5905 5909 5913 5914 5914 5915 5916 5916 5919 5918 5919 5921 5923 5926 5927 5930 5932 5932 5933 5934 5934 5934 5935 5934 5933 5933 5932 5932 5931 5931 5931 5932 5932 5932 5932 5932
5882 5886 5888 5889 5891 5894 5895 5895 5894 5895 5898 5902 5904 5903 5907 5909 5912 5914 5916 5916 5916 5918 5920 5921 5922 5924 5926 5929 5931 5933 5934 5935 5936 5937 5936 5935 5935 5934 5934 5934 5933 5933 5933 5933 5934 5933 5933 5934 5935
5879 5884 5887 5887 5891 5892 5895 5896 5895 5899 5901 5901 5903 5903 5905 5907 5910 5912 5915 5917 5916 5918 5920 5922 5924 5925 5928 5930 5933 5934 5935 5937 5938 5938 5937 5937 5936 5936 5935 5935 5936 5935 5936 5936 5937 5935 5936 5936 5938
5880 5884 5885 5884 5889 5890 5894 5895 5895 5894 5891 5898 5902 5901 5904 5904 5907 5912 5916 5917 5917 5920 5922 5924 5924 5927 5930 5930 5934 5935 5934 5937 5939 5939 5939 5939 5938 5937 5937 5938 5939 5938 5939 5940 5939 5939 5940 5940 5940
5878 5881 5883 5882 5883 5888 5890 5893 5893 5895 5896 5900 5901 5902 5903 5904 5906 5910 5914 5916 5917 5920 5922 5923 5925 5928 5931 5932 5936 5938 5937 5939 5939 5939 5940 5940 5940 5942 5943 5941 5941 5940 5942 5943 5942 5941 5942 5943 5942
5875 5876 5877 5877 5881 5881 5883 5889 5893 5894 5900 5901 5903 5902 5904 5902 5905 5908 5912 5914 5916 5918 5920 5921 5925 5928 5931 5933 5937 5939 5939 5940 5940 5940 5942 5941 5942 5943 5942 5943 5944 5942 5942 5945 5944 5944 5944 5944 5943
5869 5872 5876 5878 5878 5876 5877 5882 5887 5889 5895 5897 5900 5900 5901 5902 5903 5906 5909 5912 5915 5917 5920 5921 5924 5928 5930 5934 5937 5938 5940 5941 5942 5943 5943 5944 5945 5944 5944 5944 5944 5944 5947 5947 5945 5945 5946 5947 5948
5863 5867 5874 5875 5873 5876 5877 5880 5883 5885 5890 5894 5899 5899 5901 5902 5901 5904 5908 5910 5914 5916 5919 5920 5923 5927 5930 5933 5937 5938 5940 5942 5944 5945 5946 5946 5946 5946 5946 5946 5947 5946 5948 5949 5949 5948 5949 5949 5950
5858 5863 5868 5870 5867 5870 5872 5875 5878 5881 5887 5891 5896 5896 5901 5900 5902 5902 5906 5909 5913 5915 5917 5919 5922 5926 5930 5933 5936 5939 5941 5942 5944 5947 5949 5948 5948 5948 5949 5949 5949 5949 5950 5952 5951 5952 5953 5952 5952
5853 5858 5861 5864 5863 5867 5868 5873 5875 5878 5882 5887 5891 5891 5888 5899 5903 5901 5901 5904 5910 5913 5915 5918 5920 5924 5928 5933 5936 5938 5941 5942 5945 5947 5950 5951 5951 5951 5952 5952 5952 5952 5953 5953 5953 5953 5954 5955 5954
5850 5851 5857 5860 5859 5861 5863 5868 5873 5874 5881 5885 5890 5892 5893 5895 5901 5905 5903 5901 5906 5910 5914 5916 5919 5922 5926 5930 5935 5938 5941 5944 5945 5948 5950 5952 5953 5953 5955 5955 5955 5955 5955 5955 5955 5956 5956 5956 5957
5842 5845 5848 5853 5855 5859 5862 5864 5869 5876 5880 5883 5886 5889 5889 5895 5898 5901 5903 5899 5903 5908 5912 5914 5918 5920 5924 5927 5932 5937 5940 5943 5945 5948 5950 5952 5954 5955 5956 5956 5957 5957 5957 5957 5957 5958 5958 5958 5959
5836 5840 5843 5848 5852 5857 5862 5859 5866 5876 5879 5880 5881 5881 5886 5888 5893 5895 5899 5903 5902 5906 5910 5914 5915 5919 5923 5926 5930 5934 5938 5942 5944 5948 5950 5952 5954 5955 5956 5957 5958 5959 5960 5959 5959 5959 5959 5960 5961
5827 5831 5837 5843 5848 5849 5857 5857 5866 5872 5875 5879 5881 5879 5884 5888 5890 5893 5897 5900 5900 5902 5905 5910 5913 5915 5920 5924 5927 5932 5936 5941 5944 5946 5949 5952 5954 5954 5955 5957 5958 5959 5960 5961 5960 5960 5960 5961 5961
5821 5825 5829 5834 5838 5838 5848 5858 5866 5865 5865 5870 5874 5875 5878 5882 5888 5891 5895 5899 5902 5901 5901 5904 5909 5912 5916 5918 5923 5929 5933 5938 5942 5944 5948 5951 5953 5954 5956 5957 5958 5958 5959 5960 5961 5961 5961 5961 5962
5814 5817 5818 5823 5827 5829 5839 5850 5861 5855 5857 5859 5861 5867 5872 5877 5881 5887 5892 5895 5900 5902 5900 5900 5900 5907 5912 5914 5918 5923 5929 5933 5938 5941 5944 5947 5950 5952 5955 5955 5957 5957 5959 5960 5961 5962 5962 5962 5962
5803 5803 5807 5817 5819 5823 5834 5847 5850 5843 5845 5849 5852 5855 5860 5868 5875 5881 5884 5886 5891 5898 5901 5900 5902 5903 5907 5912 5914 5918 5923 5928 5934 5938 5941 5944 5946 5950 5952 5955 5956 5957 5958 5959 5960 5961 5962 5962 5962
5792 5797 5802 5807 5810 5814 5820 5836 5834 5830 5832 5836 5843 5850 5854 5857 5863 5871 5875 5878 5887 5895 5897 5900 5901 5902 5905 5905 5909 5914 5918 5922 5927 5933 5937 5941 5943 5946 5949 5953 5955 5957 5958 5958 5959 5960 5961 5962 5962